Location: Unspecified
(0.0000°N, 0.0000°E)
Time: 23:04:21
(UTC+00:00)

Vanguard 2 - Pass Details

Date: 10 October 2020
Orbit: 554 x 2937 km, 32.9° (Epoch: 28 October)

Event Time Altitude Azimuth Distance (km) Brightness Sun altitude
Rises 21:04:40 0° 234° (SW) 5,999 12.7 -49.0°
Reaches altitude 10° 21:08:13 10° 233° (SW) 5,217 12.2 -49.8°
Enters shadow 21:21:27 68° 230° (SW) 3,062 10.3 -53.1°
Maximum altitude 21:24:59 89° 144° (SE) 2,934 - -53.9°
Drops below altitude 10° 21:42:19 10° 54° (NE) 5,363 - -58.2°
Sets 21:46:01 0° 55° (NE) 6,166 - -59.1°
